AZU2415 SBUL-SBPS

Flight info

Callsign AZU2415
Flight time 1h 28m
Altitude 35000
Route ISRIK DCT POSMU DCT OSUNO
Aircraft A20N/M-SDE2E3FGHIRWXY/LB1

Departure

Time 2026-04-25 13:23
Airport Ten. Cel. Aviador César Bombonato Airport (SBUL)

Arrival

Time 2026-04-25 14:51
Airport Porto Seguro International Airport (SBPS)
Time Latitude Longitude Altitude Speed Heading
2026-04-25 12:58 -18.88959 -48.23014 3094 ft 0 kts 292°
2026-04-25 13:14 -18.88960 -48.23010 3098 ft 3 kts 275°
2026-04-25 13:14 -18.88954 -48.22993 3098 ft 3 kts 199°
2026-04-25 13:14 -18.88947 -48.22991 3097 ft 0 kts 172°
2026-04-25 13:18 -18.88950 -48.22991 3097 ft 3 kts 172°
2026-04-25 13:18 -18.88979 -48.22989 3095 ft 5 kts 187°
2026-04-25 13:19 -18.89016 -48.22992 3097 ft 5 kts 165°
2026-04-25 13:19 -18.89019 -48.22991 3096 ft 0 kts 158°
2026-04-25 13:20 -18.89020 -48.22990 3096 ft 1 kts 155°
2026-04-25 13:20 -18.89045 -48.22951 3096 ft 10 kts 117°
2026-04-25 13:20 -18.89101 -48.22923 3094 ft 10 kts 194°
2026-04-25 13:21 -18.89178 -48.22919 3097 ft 13 kts 173°
2026-04-25 13:21 -18.89205 -48.22955 3096 ft 8 kts 337°
2026-04-25 13:21 -18.89171 -48.22948 3099 ft 0 kts 21°
2026-04-25 13:22 -18.89100 -48.22918 3093 ft 40 kts 21°
2026-04-25 13:22 -18.88587 -48.22692 3097 ft 120 kts 22°
2026-04-25 13:23 -18.86418 -48.21777 3951 ft 186 kts 22°
2026-04-25 13:23 -18.85223 -48.21241 4811 ft 194 kts 22°
2026-04-25 13:23 -18.83902 -48.20631 5097 ft 225 kts 24°
2026-04-25 13:23 -18.82418 -48.19794 5396 ft 257 kts 38°
2026-04-25 13:24 -18.81393 -48.18206 6113 ft 273 kts 73°
2026-04-25 13:24 -18.81375 -48.16196 6856 ft 282 kts 107°
2026-04-25 13:24 -18.82419 -48.14474 7661 ft 282 kts 140°
2026-04-25 13:24 -18.84010 -48.13280 8641 ft 281 kts 148°
2026-04-25 13:25 -18.85427 -48.11857 9581 ft 286 kts 122°
2026-04-25 13:25 -18.86208 -48.09941 10472 ft 293 kts 111°
2026-04-25 13:25 -18.86851 -48.07818 10938 ft 315 kts 109°
2026-04-25 13:25 -18.87515 -48.05545 11418 ft 331 kts 109°
2026-04-25 13:26 -18.88226 -48.03165 12093 ft 339 kts 109°
2026-04-25 13:26 -18.88944 -48.00805 12766 ft 345 kts 109°
2026-04-25 13:26 -18.89692 -47.98377 13459 ft 350 kts 109°
2026-04-25 13:26 -18.90454 -47.95916 14130 ft 355 kts 109°
2026-04-25 13:27 -18.91228 -47.93423 14711 ft 360 kts 109°
2026-04-25 13:27 -18.92015 -47.90893 15300 ft 365 kts 109°
2026-04-25 13:27 -18.92810 -47.88337 15948 ft 367 kts 109°
2026-04-25 13:27 -18.93610 -47.85769 16600 ft 370 kts 108°
2026-04-25 13:28 -18.94418 -47.83172 17200 ft 374 kts 109°
2026-04-25 13:28 -18.94693 -47.82289 17384 ft 376 kts 109°
2026-04-25 13:28 -18.96058 -47.77900 18402 ft 380 kts 108°
2026-04-25 13:28 -18.96887 -47.75235 18852 ft 384 kts 108°
2026-04-25 13:29 -18.97724 -47.72540 19272 ft 389 kts 109°
2026-04-25 13:29 -18.98570 -47.69816 19711 ft 392 kts 108°
2026-04-25 13:29 -18.99421 -47.67073 20193 ft 394 kts 109°
2026-04-25 13:30 -19.01142 -47.61525 21110 ft 401 kts 109°
2026-04-25 13:30 -19.02011 -47.58719 21600 ft 404 kts 109°
2026-04-25 13:30 -19.02888 -47.55887 22074 ft 407 kts 109°
2026-04-25 13:31 -19.04664 -47.50150 23046 ft 414 kts 109°
2026-04-25 13:31 -19.05562 -47.47242 23537 ft 418 kts 109°
2026-04-25 13:31 -19.06468 -47.44309 23972 ft 421 kts 109°
2026-04-25 13:31 -19.07377 -47.41362 24400 ft 424 kts 109°
2026-04-25 13:32 -19.08294 -47.38391 24857 ft 426 kts 109°
2026-04-25 13:32 -19.09214 -47.35407 25315 ft 428 kts 109°
2026-04-25 13:32 -19.10139 -47.32404 25773 ft 431 kts 109°
2026-04-25 13:32 -19.11070 -47.29382 26201 ft 433 kts 109°
2026-04-25 13:33 -19.12004 -47.26348 26628 ft 436 kts 109°
2026-04-25 13:33 -19.12944 -47.23291 27043 ft 438 kts 109°
2026-04-25 13:33 -19.13888 -47.20219 27453 ft 441 kts 110°
2026-04-25 13:33 -19.14492 -47.18166 27716 ft 443 kts 107°
2026-04-25 13:34 -19.15235 -47.13865 28260 ft 448 kts 95°
2026-04-25 13:34 -19.15256 -47.10559 28631 ft 452 kts 89°
2026-04-25 13:34 -19.15098 -47.07228 29005 ft 455 kts 88°
2026-04-25 13:34 -19.14858 -47.03883 29369 ft 457 kts 86°
2026-04-25 13:35 -19.14583 -47.00520 29731 ft 460 kts 86°
2026-04-25 13:35 -19.14302 -46.97145 30105 ft 463 kts 86°
2026-04-25 13:35 -19.14026 -46.93745 30423 ft 465 kts 86°
2026-04-25 13:35 -19.13759 -46.90336 30723 ft 467 kts 87°
2026-04-25 13:36 -19.13502 -46.86950 31024 ft 469 kts 87°
2026-04-25 13:36 -19.13245 -46.83505 31325 ft 471 kts 87°
2026-04-25 13:36 -19.12991 -46.80049 31624 ft 473 kts 87°
2026-04-25 13:36 -19.12737 -46.76584 32026 ft 472 kts 86°
2026-04-25 13:37 -19.12483 -46.73127 32454 ft 470 kts 86°
2026-04-25 13:37 -19.12229 -46.69689 32890 ft 469 kts 86°
2026-04-25 13:37 -19.11975 -46.66254 33291 ft 468 kts 86°
2026-04-25 13:37 -19.11720 -46.62829 33701 ft 467 kts 86°
2026-04-25 13:38 -19.11465 -46.59406 34083 ft 466 kts 86°
2026-04-25 13:38 -19.11209 -46.55992 34426 ft 465 kts 86°
2026-04-25 13:38 -19.10954 -46.52593 34804 ft 463 kts 86°
2026-04-25 13:38 -19.10700 -46.49208 35056 ft 463 kts 86°
2026-04-25 13:39 -19.10444 -46.45819 35108 ft 462 kts 86°
2026-04-25 13:39 -19.09933 -46.39056 35111 ft 461 kts 86°
2026-04-25 13:40 -19.09419 -46.32299 35110 ft 461 kts 86°
2026-04-25 13:40 -19.08904 -46.25547 35111 ft 461 kts 86°
2026-04-25 13:41 -19.08386 -46.18794 35113 ft 461 kts 86°
2026-04-25 13:41 -19.07866 -46.12048 35113 ft 460 kts 86°
2026-04-25 13:42 -19.07343 -46.05307 35107 ft 461 kts 86°
2026-04-25 13:42 -19.06816 -45.98543 35106 ft 462 kts 86°
2026-04-25 13:43 -19.06287 -45.91777 35106 ft 462 kts 86°
2026-04-25 13:43 -19.05755 -45.85013 35103 ft 462 kts 86°
2026-04-25 13:44 -19.05222 -45.78255 35106 ft 462 kts 86°
2026-04-25 13:44 -19.04686 -45.71499 35101 ft 461 kts 86°
2026-04-25 13:45 -19.04151 -45.64793 35100 ft 461 kts 86°
2026-04-25 13:45 -19.03611 -45.58046 35100 ft 461 kts 86°
2026-04-25 13:46 -19.03069 -45.51305 35093 ft 460 kts 86°
2026-04-25 13:46 -19.02524 -45.44573 35091 ft 460 kts 86°
2026-04-25 13:47 -19.01979 -45.37846 35090 ft 460 kts 86°
2026-04-25 13:47 -19.01430 -45.31121 35091 ft 459 kts 86°
2026-04-25 13:48 -19.00880 -45.24403 35089 ft 459 kts 86°
2026-04-25 13:48 -19.00328 -45.17687 35092 ft 459 kts 86°
2026-04-25 13:49 -18.99773 -45.10983 35088 ft 458 kts 86°
2026-04-25 13:49 -18.99312 -45.05420 35088 ft 457 kts 86°
2026-04-25 13:50 -18.98754 -44.98722 35089 ft 457 kts 86°
2026-04-25 13:50 -18.98194 -44.92033 35088 ft 457 kts 86°
2026-04-25 13:51 -18.97632 -44.85342 35090 ft 457 kts 86°
2026-04-25 13:51 -18.97067 -44.78649 35089 ft 457 kts 86°
2026-04-25 13:52 -18.96500 -44.71963 35089 ft 457 kts 86°
2026-04-25 13:52 -18.95932 -44.65282 35088 ft 457 kts 86°
2026-04-25 13:53 -18.95361 -44.58601 35089 ft 457 kts 86°
2026-04-25 13:53 -18.94787 -44.51919 35089 ft 457 kts 86°
2026-04-25 13:54 -18.94211 -44.45240 35091 ft 457 kts 86°
2026-04-25 13:54 -18.93632 -44.38555 35091 ft 457 kts 86°
2026-04-25 13:55 -18.93055 -44.31919 35087 ft 456 kts 86°
2026-04-25 13:55 -18.92473 -44.25259 35089 ft 456 kts 86°
2026-04-25 13:56 -18.91889 -44.18592 35091 ft 456 kts 85°
2026-04-25 13:56 -18.91303 -44.11934 35091 ft 456 kts 85°
2026-04-25 13:57 -18.90714 -44.05269 35091 ft 456 kts 85°
2026-04-25 13:57 -18.90122 -43.98604 35098 ft 456 kts 85°
2026-04-25 13:58 -18.89528 -43.91940 35098 ft 456 kts 85°
2026-04-25 13:58 -18.88931 -43.85269 35101 ft 456 kts 85°
2026-04-25 13:59 -18.88332 -43.78601 35104 ft 456 kts 85°
2026-04-25 13:59 -18.87730 -43.71928 35107 ft 457 kts 85°
2026-04-25 14:00 -18.87125 -43.65252 35112 ft 457 kts 85°
2026-04-25 14:00 -18.86518 -43.58576 35113 ft 457 kts 85°
2026-04-25 14:01 -18.85908 -43.51893 35113 ft 457 kts 85°
2026-04-25 14:01 -18.85295 -43.45214 35110 ft 457 kts 85°
2026-04-25 14:02 -18.84684 -43.38575 35106 ft 458 kts 85°
2026-04-25 14:02 -18.84067 -43.31887 35099 ft 458 kts 85°
2026-04-25 14:03 -18.83447 -43.25198 35100 ft 458 kts 85°
2026-04-25 14:03 -18.82823 -43.18509 35097 ft 458 kts 85°
2026-04-25 14:04 -18.82198 -43.11823 35102 ft 458 kts 85°
2026-04-25 14:04 -18.81571 -43.05139 35099 ft 457 kts 85°
2026-04-25 14:05 -18.80942 -42.98468 35095 ft 456 kts 85°
2026-04-25 14:05 -18.80312 -42.91800 35097 ft 457 kts 85°
2026-04-25 14:06 -18.79679 -42.85130 35098 ft 457 kts 85°
2026-04-25 14:06 -18.79043 -42.78455 35100 ft 457 kts 85°
2026-04-25 14:07 -18.78405 -42.71784 35101 ft 457 kts 85°
2026-04-25 14:07 -18.77763 -42.65101 35097 ft 457 kts 85°
2026-04-25 14:08 -18.77120 -42.58428 35097 ft 458 kts 85°
2026-04-25 14:08 -18.76478 -42.51791 35097 ft 458 kts 85°
2026-04-25 14:09 -18.75505 -42.45159 35094 ft 458 kts 72°
2026-04-25 14:09 -18.72805 -42.39079 35092 ft 458 kts 62°
2026-04-25 14:10 -18.69769 -42.33166 35087 ft 459 kts 62°
2026-04-25 14:10 -18.66710 -42.27259 35085 ft 459 kts 62°
2026-04-25 14:11 -18.63651 -42.21358 35085 ft 459 kts 62°
2026-04-25 14:11 -18.60587 -42.15453 35084 ft 459 kts 62°
2026-04-25 14:12 -18.57520 -42.09548 35077 ft 459 kts 62°
2026-04-25 14:12 -18.54459 -42.03660 35078 ft 457 kts 62°
2026-04-25 14:13 -18.51405 -41.97790 35075 ft 457 kts 62°
2026-04-25 14:13 -18.48344 -41.91914 35074 ft 458 kts 62°
2026-04-25 14:14 -18.45278 -41.86033 35077 ft 458 kts 62°
2026-04-25 14:14 -18.42210 -41.80154 35072 ft 458 kts 62°
2026-04-25 14:15 -18.39164 -41.74324 35072 ft 457 kts 62°
2026-04-25 14:15 -18.36101 -41.68465 35073 ft 457 kts 62°
2026-04-25 14:16 -18.33037 -41.62610 35070 ft 457 kts 62°
2026-04-25 14:16 -18.29973 -41.56761 35075 ft 456 kts 62°
2026-04-25 14:17 -18.26904 -41.50906 35075 ft 457 kts 62°
2026-04-25 14:17 -18.23829 -41.45046 35074 ft 457 kts 61°
2026-04-25 14:18 -18.20761 -41.39207 35078 ft 456 kts 61°
2026-04-25 14:18 -18.17695 -41.33375 35078 ft 455 kts 61°
2026-04-25 14:19 -18.14626 -41.27543 35079 ft 456 kts 61°
2026-04-25 14:19 -18.11551 -41.21706 35075 ft 456 kts 61°
2026-04-25 14:20 -18.08475 -41.15871 35073 ft 456 kts 61°
2026-04-25 14:20 -18.05400 -41.10046 35073 ft 455 kts 61°
2026-04-25 14:21 -18.02333 -41.04240 35071 ft 454 kts 61°
2026-04-25 14:21 -17.99265 -40.98437 35069 ft 454 kts 61°
2026-04-25 14:22 -17.96194 -40.92632 35073 ft 454 kts 61°
2026-04-25 14:22 -17.93121 -40.86831 35070 ft 455 kts 61°
2026-04-25 14:23 -17.90061 -40.81058 35068 ft 455 kts 61°
2026-04-25 14:23 -17.86982 -40.75256 35069 ft 454 kts 61°
2026-04-25 14:24 -17.83912 -40.69475 35063 ft 454 kts 61°
2026-04-25 14:24 -17.80838 -40.63691 35064 ft 454 kts 61°
2026-04-25 14:25 -17.77759 -40.57904 35064 ft 454 kts 61°
2026-04-25 14:25 -17.74676 -40.52116 35064 ft 454 kts 61°
2026-04-25 14:26 -17.71594 -40.46333 35059 ft 454 kts 61°
2026-04-25 14:26 -17.68515 -40.40562 34687 ft 453 kts 61°
2026-04-25 14:26 -17.66967 -40.37661 33861 ft 459 kts 61°
2026-04-25 14:27 -17.65400 -40.34726 33000 ft 464 kts 62°
2026-04-25 14:27 -17.63823 -40.31776 32398 ft 462 kts 62°
2026-04-25 14:27 -17.62256 -40.28845 31853 ft 459 kts 62°
2026-04-25 14:27 -17.60697 -40.25931 31296 ft 457 kts 62°
2026-04-25 14:28 -17.59143 -40.23026 30726 ft 456 kts 62°
2026-04-25 14:28 -17.57593 -40.20131 30145 ft 455 kts 62°
2026-04-25 14:28 -17.56047 -40.17244 29482 ft 454 kts 62°
2026-04-25 14:28 -17.54506 -40.14368 28884 ft 451 kts 62°
2026-04-25 14:29 -17.52976 -40.11513 28286 ft 446 kts 62°
2026-04-25 14:29 -17.51472 -40.08709 27727 ft 435 kts 62°
2026-04-25 14:29 -17.50003 -40.05972 27161 ft 429 kts 62°
2026-04-25 14:29 -17.48543 -40.03250 26590 ft 429 kts 62°
2026-04-25 14:30 -17.47082 -40.00528 26008 ft 428 kts 62°
2026-04-25 14:30 -17.44088 -39.95138 24853 ft 429 kts 55°
2026-04-25 14:30 -17.41993 -39.92927 24298 ft 429 kts 36°
2026-04-25 14:31 -17.39452 -39.91333 23687 ft 423 kts 28°
2026-04-25 14:31 -17.36858 -39.89944 23015 ft 415 kts 27°
2026-04-25 14:31 -17.34295 -39.88596 22438 ft 411 kts 27°
2026-04-25 14:31 -17.31750 -39.87247 21871 ft 409 kts 27°
2026-04-25 14:32 -17.29217 -39.85894 21294 ft 407 kts 27°
2026-04-25 14:32 -17.26709 -39.84547 20774 ft 403 kts 28°
2026-04-25 14:32 -17.24245 -39.83220 20180 ft 393 kts 28°
2026-04-25 14:32 -17.21833 -39.81919 19630 ft 388 kts 28°
2026-04-25 14:33 -17.19434 -39.80624 19059 ft 389 kts 28°
2026-04-25 14:33 -17.17037 -39.79330 18586 ft 385 kts 28°
2026-04-25 14:33 -17.14672 -39.78053 17949 ft 379 kts 27°
2026-04-25 14:33 -17.12364 -39.76806 17373 ft 369 kts 27°
2026-04-25 14:34 -17.10115 -39.75592 16861 ft 360 kts 27°
2026-04-25 14:34 -17.07892 -39.74391 16338 ft 359 kts 27°
2026-04-25 14:34 -17.05677 -39.73195 15823 ft 357 kts 26°
2026-04-25 14:34 -17.03476 -39.72007 15311 ft 356 kts 26°
2026-04-25 14:35 -17.01323 -39.70745 14812 ft 354 kts 29°
2026-04-25 14:35 -16.99218 -39.69432 14368 ft 350 kts 30°
2026-04-25 14:35 -16.97148 -39.68126 13931 ft 343 kts 29°
2026-04-25 14:35 -16.95155 -39.66869 13477 ft 337 kts 29°
2026-04-25 14:36 -16.93171 -39.65620 13189 ft 328 kts 29°
2026-04-25 14:36 -16.91242 -39.64408 12872 ft 319 kts 29°
2026-04-25 14:36 -16.89375 -39.63234 12507 ft 310 kts 29°
2026-04-25 14:36 -16.87527 -39.62074 12122 ft 309 kts 29°
2026-04-25 14:37 -16.85694 -39.60924 11739 ft 306 kts 30°
2026-04-25 14:37 -16.83873 -39.59782 11342 ft 304 kts 30°
2026-04-25 14:37 -16.82071 -39.58652 10978 ft 301 kts 30°
2026-04-25 14:37 -16.80279 -39.57529 10599 ft 299 kts 30°
2026-04-25 14:38 -16.78501 -39.56414 10239 ft 297 kts 31°
2026-04-25 14:38 -16.76743 -39.55312 9837 ft 295 kts 31°
2026-04-25 14:38 -16.74974 -39.54203 9275 ft 297 kts 31°
2026-04-25 14:38 -16.73260 -39.53005 8827 ft 295 kts 36°
2026-04-25 14:39 -16.71645 -39.51749 8582 ft 282 kts 37°
2026-04-25 14:39 -16.70125 -39.50545 8388 ft 266 kts 37°
2026-04-25 14:39 -16.68693 -39.49408 8210 ft 251 kts 37°
2026-04-25 14:39 -16.67346 -39.48340 8100 ft 233 kts 38°
2026-04-25 14:40 -16.66109 -39.47360 7945 ft 216 kts 38°
2026-04-25 14:40 -16.64951 -39.46443 7733 ft 201 kts 38°
2026-04-25 14:40 -16.63880 -39.45596 7595 ft 186 kts 38°
2026-04-25 14:40 -16.62889 -39.44813 7525 ft 172 kts 38°
2026-04-25 14:41 -16.61970 -39.44086 7367 ft 161 kts 39°
2026-04-25 14:41 -16.61088 -39.43388 7090 ft 158 kts 39°
2026-04-25 14:41 -16.60212 -39.42695 6776 ft 158 kts 40°
2026-04-25 14:41 -16.59340 -39.42005 6475 ft 157 kts 40°
2026-04-25 14:42 -16.58767 -39.41552 6292 ft 155 kts 39°
2026-04-25 14:42 -16.58208 -39.41110 6152 ft 150 kts 40°
2026-04-25 14:42 -16.57097 -39.40232 5781 ft 150 kts 39°
2026-04-25 14:42 -16.56265 -39.39575 5494 ft 150 kts 41°
2026-04-25 14:43 -16.55434 -39.38918 5231 ft 150 kts 41°
2026-04-25 14:43 -16.54606 -39.38263 4990 ft 150 kts 41°
2026-04-25 14:43 -16.53777 -39.37608 4825 ft 149 kts 39°
2026-04-25 14:43 -16.52953 -39.36959 4714 ft 148 kts 40°
2026-04-25 14:44 -16.52144 -39.36302 4540 ft 147 kts 45°
2026-04-25 14:44 -16.51456 -39.35526 4250 ft 145 kts 59°
2026-04-25 14:44 -16.50993 -39.34600 3983 ft 143 kts 72°
2026-04-25 14:44 -16.50699 -39.33610 3707 ft 143 kts 76°
2026-04-25 14:45 -16.50435 -39.32618 3415 ft 142 kts 77°
2026-04-25 14:45 -16.50173 -39.31624 3093 ft 141 kts 78°
2026-04-25 14:45 -16.49913 -39.30644 2854 ft 141 kts 79°
2026-04-25 14:45 -16.49651 -39.29661 2638 ft 140 kts 78°
2026-04-25 14:46 -16.49392 -39.28688 2328 ft 139 kts 76°
2026-04-25 14:46 -16.49132 -39.27714 2043 ft 139 kts 76°
2026-04-25 14:46 -16.48875 -39.26755 2006 ft 140 kts 77°
2026-04-25 14:46 -16.48610 -39.25767 2010 ft 139 kts 77°
2026-04-25 14:47 -16.48349 -39.24800 1891 ft 138 kts 79°
2026-04-25 14:47 -16.48178 -39.24159 1846 ft 139 kts 77°
2026-04-25 14:47 -16.47829 -39.22865 1832 ft 138 kts 79°
2026-04-25 14:47 -16.47573 -39.21914 1828 ft 138 kts 79°
2026-04-25 14:48 -16.47314 -39.20948 1826 ft 139 kts 76°
2026-04-25 14:48 -16.47054 -39.19979 1826 ft 139 kts 76°
2026-04-25 14:48 -16.46789 -39.18991 1835 ft 140 kts 76°
2026-04-25 14:48 -16.46529 -39.18029 1820 ft 139 kts 76°
2026-04-25 14:49 -16.46264 -39.17046 1795 ft 139 kts 77°
2026-04-25 14:49 -16.46007 -39.16091 1663 ft 139 kts 78°
2026-04-25 14:49 -16.45747 -39.15127 1440 ft 138 kts 79°
2026-04-25 14:49 -16.45490 -39.14171 1232 ft 136 kts 78°
2026-04-25 14:50 -16.45234 -39.13222 1058 ft 136 kts 78°
2026-04-25 14:50 -16.44978 -39.12270 905 ft 136 kts 77°
2026-04-25 14:50 -16.44721 -39.11316 717 ft 137 kts 75°
2026-04-25 14:50 -16.44463 -39.10361 527 ft 137 kts 74°
2026-04-25 14:51 -16.44200 -39.09409 321 ft 138 kts 74°
2026-04-25 14:51 -16.43950 -39.08477 179 ft 125 kts 74°
2026-04-25 14:51 -16.43787 -39.07862 173 ft 61 kts 75°
2026-04-25 14:51 -16.43718 -39.07581 172 ft 16 kts 82°
2026-04-25 14:52 -16.43706 -39.07502 171 ft 2 kts 40°
2026-04-25 14:52 -16.43694 -39.07518 171 ft 7 kts 279°
2026-04-25 14:52 -16.43715 -39.07585 172 ft 10 kts 251°
2026-04-25 14:52 -16.43730 -39.07632 172 ft 10 kts 251°
2026-04-25 14:53 -16.43788 -39.07659 172 ft 8 kts 168°
2026-04-25 14:53 -16.43801 -39.07655 172 ft 0 kts 163°
2026-04-25 14:54 -16.43803 -39.07655 172 ft 1 kts 163°
2026-04-25 14:54 -16.43833 -39.07646 171 ft 7 kts 163°
2026-04-25 14:55 -16.43874 -39.07628 170 ft 6 kts 118°
2026-04-25 14:55 -16.43860 -39.07608 170 ft 3 kts 359°
2026-04-25 14:55 -16.43853 -39.07610 170 ft 0 kts 345°